Wind_Speed
110 110 110 111 112 114 116 116 116 114 112 112 112 113 115 116 116 115 113 111 109 107 106 104 103 103 102 101 100 101 101 102 102 102 101 101 100 99 98 98 97 96 97 97 96 96 96 97 98 99 100 100 101 102 103 103 103 104 104 105 106 107 108 109 110 111 112 113 114 115 116 117 117 118 119 119 119 119 119 118 118 118 117 117 117
110 112 114 115 116 117 118 119 119 116 114 113 113 114 116 119 121 120 119 117 115 113 112 110 109 108 107 106 104 104 104 105 106 106 105 105 104 103 102 102 102 102 102 103 103 102 102 102 102 103 104 105 106 107 108 108 108 108 108 109 110 111 112 113 114 115 116 117 118 119 120 120 120 120 120 119 119 118 117 116 115 114 113 114 115
110 112 114 117 119 120 120 120 120 118 115 113 113 114 116 119 122 123 122 122 121 118 116 115 114 113 112 111 109 109 108 109 110 111 110 110 109 108 107 106 106 106 107 107 108 107 106 106 106 107 108 109 110 111 111 112 112 112 113 113 114 115 116 117 118 119 120 120 122 122 123 123 122 122 121 119 118 117 115 113 112 111 112 113 114
109 110 112 115 118 120 121 120 119 117 116 114 113 114 115 117 120 123 124 124 123 121 119 117 116 116 116 115 115 114 114 114 115 115 114 114 113 112 111 110 109 109 110 111 112 112 111 110 109 110 112 112 113 114 115 115 116 116 117 117 118 118 119 120 120 121 122 122 122 123 123 122 122 121 120 119 117 116 115 113 112 112 113 115 116
107 108 109 110 112 114 117 118 118 117 116 116 115 115 116 117 118 120 123 124 124 123 122 120 118 117 117 118 118 119 119 119 118 118 118 117 116 116 115 114 114 113 113 114 115 115 115 114 114 114 115 116 116 117 119 119 119 120 120 121 121 122 122 122 122 122 122 122 122 121 121 120 119 118 118 117 117 116 115 114 114 114 116 117 119
110 110 110 110 111 111 113 115 117 118 118 118 117 117 118 118 118 118 120 122 123 123 123 122 121 119 119 119 120 121 121 121 121 121 121 121 120 120 119 119 119 118 117 116 116 118 118 118 118 118 118 118 119 120 121 122 122 122 122 122 123 123 122 122 122 122 121 121 121 120 119 118 117 117 117 117 117 117 116 115 114 115 116 117 118
115 114 113 112 113 113 114 115 116 117 118 118 118 118 118 119 119 118 118 119 120 121 122 121 121 121 121 121 121 122 123 124 124 123 123 123 123 123 123 123 123 122 120 119 118 119 119 119 119 120 120 120 121 121 122 122 122 122 121 121 121 121 121 122 121 121 121 122 121 121 120 119 119 119 119 119 118 118 116 114 113 113 114 115 116
116 116 116 115 114 114 115 115 115 115 115 116 117 117 117 118 119 119 118 117 117 119 120 120 120 121 121 121 121 121 123 124 125 125 126 126 126 126 126 126 126 125 124 122 121 121 121 120 121 121 122 122 122 122 122 123 122 121 120 120 120 120 121 121 120 121 122 122 122 122 122 121 121 121 120 120 119 118 115 113 112 112 113 114 115
114 115 116 115 115 114 114 114 114 113 113 113 114 115 116 117 118 119 119 118 117 117 118 118 119 119 119 119 119 120 121 123 124 126 127 127 127 127 127 127 128 127 127 125 124 123 122 121 120 121 122 122 122 122 122 122 122 121 120 120 120 120 120 120 120 121 122 122 123 123 123 123 123 122 121 120 118 116 113 111 111 112 113 114 115
112 113 113 113 113 112 111 112 112 111 111 111 111 112 113 115 117 118 119 119 118 117 117 117 117 117 117 116 117 118 119 120 122 123 125 126 126 126 126 126 126 126 126 124 122 121 119 118 118 118 119 120 120 120 120 121 121 121 120 120 120 120 120 120 120 121 122 122 123 123 123 123 122 121 119 117 115 114 112 111 112 112 113 114 113
108 109 110 110 110 109 109 109 108 108 108 108 108 109 110 112 115 117 119 119 119 118 118 117 116 116 116 115 115 115 115 116 118 119 120 121 123 124 124 124 123 123 121 119 117 116 115 115 114 115 116 117 117 118 118 118 119 119 120 121 121 122 122 121 121 122 122 123 123 123 122 121 120 118 115 113 112 112 113 113 114 113 113 113 111
105 106 107 108 108 108 107 107 106 107 106 107 107 108 109 110 112 114 116 118 119 119 118 116 115 115 114 114 113 113 112 113 115 115 116 117 118 120 121 121 121 119 117 115 113 112 112 112 112 112 113 114 115 116 117 117 118 118 120 121 123 124 125 124 124 123 123 123 122 121 120 118 116 114 112 110 110 110 111 112 112 112 111 110 107
104 104 105 106 107 107 107 106 106 106 107 107 107 108 109 110 111 112 114 115 117 119 118 116 115 115 114 113 112 111 111 111 113 114 115 115 115 116 117 118 118 117 115 113 111 110 109 109 110 111 112 113 114 115 116 116 116 116 118 120 122 125 125 124 123 122 121 119 118 117 115 114 112 110 109 108 108 109 109 109 108 108 107 104 102
103 103 103 104 105 107 107 107 107 107 107 108 108 109 109 110 111 112 113 113 115 116 117 117 116 116 115 113 112 110 110 110 111 112 113 114 114 114 115 115 115 114 113 112 111 109 109 108 109 110 112 113 113 114 114 114 114 115 115 116 119 122 123 122 120 119 118 116 115 114 113 112 111 110 109 109 109 109 108 107 106 104 102 100 99
101 102 102 103 104 106 107 108 109 108 108 109 110 110 111 111 111 112 113 113 114 114 115 116 116 117 117 116 114 111 110 109 110 111 112 112 113 114 115 115 114 113 113 111 110 108 108 108 109 111 112 113 113 113 114 114 114 113 113 114 117 120 120 119 119 118 117 116 115 115 114 112 112 111 111 110 109 108 107 105 103 100 98 98 98
100 100 101 101 103 105 106 108 108 109 109 109 110 111 112 112 112 112 112 113 114 114 114 114 115 116 117 117 116 114 111 110 111 111 111 111 112 113 114 114 114 113 113 111 110 109 108 109 110 111 112 112 112 112 112 113 112 112 113 115 117 118 119 119 119 119 119 118 117 116 115 114 113 113 112 110 109 107 105 102 98 96 96 97 98
100 100 100 100 101 103 105 107 107 108 109 109 110 111 112 113 113 113 112 112 113 114 113 113 114 115 116 117 116 115 113 112 112 111 111 111 112 113 114 114 114 113 113 112 112 111 111 111 111 111 111 111 111 111 111 111 112 113 114 116 118 118 119 119 120 121 121 120 118 117 116 115 114 113 112 110 109 107 103 98 95 94 95 97 97
101 100 100 101 101 102 104 106 107 107 108 109 110 110 112 113 113 113 113 112 112 113 112 113 113 114 115 115 114 113 112 112 112 112 111 111 112 113 114 114 114 113 112 112 112 112 112 113 113 113 112 112 111 111 111 112 113 115 117 118 118 118 118 119 120 121 121 119 118 117 116 114 113 112 111 110 109 106 101 96 94 95 96 97 97
101 101 101 102 102 102 104 105 106 107 108 109 110 111 112 113 114 114 113 113 112 112 111 111 112 112 113 113 113 111 110 110 111 111 110 111 112 113 114 114 114 113 113 112 112 112 112 113 113 113 113 112 111 111 111 112 114 116 118 118 117 117 118 120 121 121 120 119 118 117 115 114 114 112 110 109 108 105 101 97 96 97 97 98 98
100 101 101 102 103 103 104 104 105 106 107 108 109 111 112 114 115 116 115 114 113 112 112 111 111 111 112 112 111 110 109 109 109 109 109 110 112 113 113 113 113 113 112 112 112 112 112 111 111 111 111 110 109 109 110 112 114 115 116 116 117 118 120 121 121 121 121 120 118 116 114 114 113 112 110 109 108 106 103 100 98 99 99 100 100
101 101 101 102 103 104 104 104 104 105 106 107 108 109 111 113 115 116 117 116 115 114 113 112 111 111 111 111 111 110 109 109 108 108 108 110 111 112 112 112 113 113 113 113 113 112 112 111 111 111 110 109 109 109 112 114 115 115 115 116 119 121 123 123 123 123 123 122 120 117 115 113 112 111 110 110 109 108 106 103 101 101 101 101 101
101 101 101 101 102 103 104 104 104 103 104 106 107 108 110 113 115 116 117 117 117 116 115 114 113 111 111 111 110 110 110 109 108 108 108 109 111 112 112 112 113 113 113 113 112 112 112 112 112 112 111 111 111 113 115 117 118 118 118 120 123 125 126 126 126 125 124 122 120 117 114 112 110 110 110 110 110 109 107 106 105 104 103 102 102
96 97 98 100 101 102 103 103 103 103 103 104 106 107 108 111 114 116 117 117 117 117 116 116 115 113 112 111 110 110 110 109 108 108 108 109 111 112 113 113 113 113 112 112 111 111 112 112 112 113 112 113 113 116 118 119 120 120 121 123 125 127 127 127 126 124 122 120 117 115 113 111 110 110 111 111 110 110 109 108 108 106 105 103 103
91 91 93 95 97 99 101 101 101 102 102 103 104 105 106 109 112 115 116 117 117 117 117 117 117 115 114 113 111 111 110 109 109 109 109 109 110 112 113 113 113 112 111 110 109 109 109 110 111 112 112 113 114 117 120 121 121 122 123 124 125 125 126 126 125 122 119 117 115 113 112 111 111 112 112 112 112 111 110 110 109 107 106 105 106
90 89 90 91 93 96 98 99 99 100 100 101 102 102 103 105 108 111 114 116 116 116 117 118 118 117 116 114 113 112 111 110 109 109 110 110 111 112 113 112 112 112 111 109 108 107 107 107 108 110 111 112 114 118 119 120 121 122 123 123 123 122 123 123 123 120 118 116 114 112 112 112 112 113 113 113 113 111 111 110 109 108 107 107 108
90 90 89 89 91 93 95 96 98 99 99 99 99 99 99 101 104 106 110 112 114 115 116 117 117 118 117 116 115 114 112 111 111 110 111 111 112 113 112 111 111 111 110 109 108 107 106 106 107 109 111 113 115 117 118 118 118 119 120 120 119 120 121 122 121 119 117 116 115 114 113 114 114 114 114 114 113 112 111 111 110 109 109 108 108
90 89 89 88 88 90 92 94 96 98 99 99 98 97 95 96 98 102 105 108 111 113 114 115 116 117 116 117 116 115 113 112 111 111 112 113 113 113 112 110 110 110 110 110 110 109 108 107 108 109 111 113 115 116 116 116 115 116 117 118 119 120 121 122 121 119 118 118 117 116 116 115 115 116 116 115 114 113 112 112 111 110 109 108 108
87 87 87 87 87 87 88 90 92 95 97 99 99 98 95 94 94 96 100 104 107 110 112 113 114 115 115 116 116 115 113 112 112 112 114 115 115 114 112 111 110 111 111 111 112 112 111 111 110 111 112 113 113 113 114 115 115 116 117 118 119 121 121 121 120 119 119 120 119 118 118 117 118 117 117 116 115 114 113 112 111 110 109 108 107
84 84 84 86 86 86 86 86 87 90 93 96 98 99 98 96 93 93 96 100 104 107 109 111 112 113 114 114 115 114 113 112 112 113 114 115 115 114 113 112 111 112 113 114 114 115 114 113 112 112 113 113 112 112 114 116 117 117 118 120 121 121 121 120 119 119 120 121 120 120 119 119 119 118 118 117 116 114 114 113 111 110 109 108 107
80 80 81 83 84 84 84 83 84 86 89 92 96 97 98 97 95 92 93 97 100 103 105 107 109 111 113 113 113 113 112 113 113 114 114 114 114 114 113 113 113 113 114 115 116 116 114 113 113 113 113 113 113 113 115 116 118 118 119 121 121 121 120 119 119 120 121 121 121 120 120 120 119 119 118 117 116 115 114 113 111 110 109 108 107
77 77 79 79 80 81 81 81 82 83 85 88 91 94 95 96 95 93 92 95 97 99 100 103 106 109 110 111 111 112 112 112 113 114 114 114 114 114 113 113 113 113 114 114 115 115 114 113 113 114 114 114 114 114 115 116 118 118 119 121 121 120 119 118 119 120 121 121 121 121 120 120 119 119 118 117 116 115 114 112 111 110 108 107 106
78 77 78 78 77 77 77 78 79 80 81 83 85 88 90 92 93 92 92 93 95 96 97 99 102 105 107 109 110 111 111 112 113 113 114 114 114 114 114 113 113 114 114 115 115 115 114 113 113 114 114 114 114 114 115 116 118 119 120 121 121 120 119 119 120 121 121 121 121 120 120 120 119 118 118 117 116 115 114 112 110 109 109 108 107
78 78 78 77 75 73 73 73 75 76 78 79 80 82 84 86 89 91 91 91 92 94 95 96 98 101 103 105 107 108 110 110 111 112 113 114 114 114 114 115 114 114 114 114 114 114 114 113 112 113 114 114 115 115 116 117 119 119 120 120 120 120 120 121 121 122 121 121 120 119 119 118 118 118 118 117 117 115 113 111 111 110 110 109 108
76 76 77 76 74 72 70 70 70 72 73 75 76 77 78 80 82 86 88 89 90 91 92 93 95 97 99 101 102 105 106 108 109 110 111 112 113 114 115 116 114 112 111 112 112 113 113 113 113 114 115 115 115 116 117 119 120 119 119 120 120 121 122 122 122 122 121 120 119 118 118 118 117 117 117 116 116 114 113 112 111 111 110 109 107
73 74 75 74 73 72 70 69 68 68 69 71 73 74 75 75 77 80 83 86 87 88 88 90 91 93 95 96 98 100 102 104 105 106 108 110 112 114 115 115 112 110 109 110 112 112 113 113 113 115 117 117 117 117 118 119 120 119 120 120 121 122 122 122 122 122 121 120 119 118 118 117 117 117 116 116 115 114 113 113 112 111 109 108 107
70 71 72 72 71 70 69 68 67 66 66 67 69 70 71 72 73 74 77 80 83 84 85 86 88 90 91 93 94 96 98 100 101 103 104 107 109 112 112 111 110 108 108 110 111 112 112 113 114 116 118 118 118 118 118 119 120 119 119 120 120 121 121 121 121 121 120 120 119 119 118 117 117 117 117 116 116 115 114 113 112 110 109 107 105
67 67 68 69 69 69 68 67 66 65 64 65 65 66 68 69 70 70 72 74 78 81 82 83 84 86 88 90 92 94 95 96 98 100 102 103 106 107 107 107 107 107 106 107 108 110 111 112 114 117 118 119 119 119 119 119 120 119 119 119 119 120 120 121 120 120 120 120 119 119 118 118 117 117 117 117 116 115 114 113 111 109 107 104 102
64 64 65 66 66 67 66 65 64 63 63 63 63 63 64 66 66 66 67 69 72 76 79 80 81 82 84 87 90 92 93 94 95 97 98 99 100 101 102 103 104 104 104 103 104 106 108 110 113 116 117 118 118 118 118 118 119 119 118 118 118 119 119 119 120 120 120 119 119 119 119 118 118 118 118 118 116 115 113 111 108 106 104 101 99
61 62 63 63 64 65 65 64 63 62 61 61 61 61 61 62 63 63 64 66 67 70 74 77 78 79 81 83 86 88 89 90 91 92 94 96 97 98 99 101 102 101 100 99 99 102 105 108 111 114 116 117 117 116 116 116 117 117 117 117 116 117 118 118 119 119 119 118 119 119 119 119 119 119 118 116 115 113 111 108 105 103 101 98 95
59 61 61 61 62 63 63 63 62 61 60 59 59 59 59 59 60 60 61 62 64 66 69 72 75 77 79 80 81 83 84 85 86 87 90 92 94 95 97 98 98 96 95 94 96 99 102 106 109 112 115 115 114 113 113 113 114 114 115 115 115 115 116 117 117 117 117 117 117 118 118 118 117 117 115 113 111 110 108 106 103 100 97 95 93
56 58 58 59 60 61 62 62 61 61 61 60 59 58 57 58 58 59 59 60 61 62 64 67 71 74 76 77 78 78 79 80 82 83 85 88 91 92 93 93 93 92 91 91 94 97 101 104 108 111 112 111 110 110 110 110 111 112 112 113 113 114 114 114 114 114 115 115 115 115 115 114 114 113 111 109 107 106 104 103 101 98 96 93 92
54 54 55 56 58 59 60 60 60 60 60 60 59 59 58 57 57 58 58 58 59 60 61 64 66 69 71 73 74 75 75 75 77 79 81 84 86 88 89 90 90 90 90 91 93 97 101 104 107 108 108 107 107 107 107 108 108 109 110 110 111 111 111 111 111 111 112 112 112 111 111 110 109 108 107 105 104 103 101 100 98 96 93 91 89
51 51 52 53 54 56 58 58 58 58 58 58 59 59 58 58 57 57 57 58 58 58 59 61 63 65 67 69 70 71 71 72 73 75 78 81 83 85 86 87 88 89 89 91 93 96 100 102 102 103 103 103 104 104 105 105 105 106 107 107 108 109 109 109 108 108 108 108 108 107 106 106 105 104 103 101 100 99 97 96 93 91 89 87 86
49 49 50 50 51 53 54 55 56 56 56 56 56 57 57 57 57 57 57 57 57 57 58 59 61 63 65 66 67 67 68 70 72 74 76 79 81 82 83 85 86 87 89 90 92 95 96 97 98 99 99 100 101 101 102 102 102 103 103 104 105 105 106 105 105 105 104 104 103 103 102 101 101 100 99 98 96 94 93 91 89 87 86 85 84
47 47 48 48 49 50 51 52 53 53 54 54 54 54 55 55 56 56 56 55 56 56 57 57 59 61 63 64 65 66 67 68 70 72 74 76 78 80 81 82 84 85 87 89 90 92 93 94 95 96 96 97 98 98 99 99 99 99 100 101 101 101 102 102 102 101 101 100 99 99 98 98 98 97 95 93 91 90 88 87 86 85 84 82 82
46 46 46 46 47 48 49 49 50 51 51 52 52 52 53 53 53 54 54 54 54 54 54 55 56 58 60 61 63 64 66 67 68 69 71 73 75 77 79 80 82 83 85 86 88 89 90 91 92 93 94 95 95 96 96 96 96 96 97 97 98 98 99 98 98 98 97 96 96 96 95 95 94 93 91 89 87 86 86 85 84 83 82 81 80
45 45 46 45 46 46 47 47 48 49 49 50 50 50 51 51 51 52 52 52 52 52 52 53 54 55 56 58 60 62 63 65 66 67 69 71 73 75 77 78 80 81 82 84 85 86 88 88 89 90 91 92 93 94 94 94 94 93 94 94 94 95 95 95 94 94 94 93 93 93 93 93 91 89 87 86 85 84 84 83 82 82 81 80 79
45 45 45 45 45 45 45 46 46 47 47 48 48 49 49 50 50 50 50 50 50 50 50 50 51 52 54 55 57 59 61 62 63 65 66 68 71 73 74 76 77 79 80 81 83 84 85 86 87 88 89 90 91 91 91 91 91 91 91 91 91 91 92 92 92 92 92 91 91 91 90 90 89 87 85 85 83 82 82 81 81 81 81 79 78
44 44 43 44 44 44 45 45 45 45 46 46 47 47 48 48 48 49 49 49 49 49 49 49 49 50 52 53 55 57 59 60 61 63 65 66 69 71 72 74 75 77 78 79 80 81 83 83 84 86 87 88 89 89 89 89 90 90 90 90 90 90 90 90 90 90 89 89 89 89 88 88 87 86 84 83 82 81 81 81 81 80 78 77 76
42 42 42 42 42 42 43 44 44 44 44 45 45 45 46 46 47 47 48 48 48 48 49 49 49 49 50 51 53 54 56 58 59 61 63 64 66 68 70 72 73 75 76 77 78 80 81 82 83 84 85 86 87 88 88 89 89 89 89 89 89 89 89 88 87 87 86 86 87 87 87 87 86 85 83 83 82 81 80 79 78 77 76 75 74
39 39 39 39 39 40 40 41 41 42 42 43 43 43 44 44 45 45 46 46 47 47 48 48 49 49 49 50 51 52 53 55 56 58 60 61 63 65 67 69 70 72 74 75 77 78 80 81 82 83 84 85 86 86 86 87 87 87 87 87 87 86 85 85 84 84 85 85 86 86 85 85 84 84 83 82 81 79 78 77 76 75 74 73 72
Wind_Direction
263 263 262 262 262 263 264 265 265 265 265 264 262 262 262 261 260 259 259 259 259 258 258 258 258 259 259 260 260 261 262 262 263 263 264 264 264 264 265 265 265 266 267 268 268 267 267 267 268 268 268 268 268 269 270 270 271 271 271 272 273 274 274 275 276 277 277 278 278 279 279 280 280 281 281 282 282 283 284 285 286 286 286 285 285
261 261 262 262 261 262 263 264 264 264 263 262 261 261 261 261 261 260 259 259 259 259 258 258 258 258 258 258 259 260 261 262 262 263 263 263 263 263 263 264 264 265 266 267 268 268 267 267 267 268 268 268 269 269 270 271 271 271 272 272 273 274 275 275 276 277 277 278 279 279 280 281 281 282 283 284 285 285 286 287 286 286 285 285 285
260 259 259 260 261 262 262 262 263 263 263 262 261 261 260 260 260 260 260 260 260 259 259 258 257 257 257 257 258 259 259 260 261 261 261 262 262 262 263 263 264 264 265 266 267 267 267 267 267 267 267 268 268 269 270 270 271 271 272 272 273 273 274 275 276 277 278 278 279 280 281 281 282 283 284 285 286 288 288 287 286 285 285 284 285
259 258 258 258 260 261 262 263 263 263 262 262 262 262 261 261 260 259 259 259 260 260 259 258 257 256 256 256 257 257 258 258 259 260 260 261 261 262 262 263 264 264 265 266 266 267 267 267 267 267 267 267 268 269 270 270 271 271 272 272 272 273 274 275 276 277 278 278 279 280 281 282 283 284 285 286 287 288 288 287 285 285 284 284 284
260 259 259 258 258 260 261 263 263 263 262 262 262 262 262 261 260 260 259 259 259 259 259 258 257 256 256 256 255 256 256 256 257 258 259 260 261 261 262 262 263 264 265 266 266 267 267 267 267 267 267 268 268 269 269 270 270 271 271 272 272 273 274 275 275 276 277 278 279 280 281 282 283 284 285 286 287 288 287 286 284 284 283 284 284
263 261 261 261 261 261 261 261 262 263 263 263 262 262 262 262 261 260 259 258 258 258 258 258 258 257 256 256 255 255 255 255 256 257 258 259 260 260 261 262 262 263 264 265 265 266 266 267 267 267 267 268 268 269 269 270 270 271 271 272 272 273 274 274 275 276 277 278 278 279 280 281 282 283 283 284 285 286 286 284 283 282 282 283 284
264 264 263 262 262 262 262 261 261 261 263 263 263 262 262 262 261 260 259 258 258 258 258 258 258 258 257 257 256 256 255 255 255 256 256 257 258 259 259 260 261 262 262 263 264 265 265 266 267 267 268 268 269 269 270 270 270 271 271 272 272 273 273 274 275 275 276 277 278 278 279 280 281 282 282 283 284 284 284 282 281 281 282 282 283
265 264 264 263 263 263 263 262 262 261 260 261 262 263 262 261 260 259 259 258 258 258 258 258 258 258 258 258 257 257 256 256 256 256 256 256 257 257 258 259 260 261 261 262 263 263 264 265 266 267 267 268 268 269 269 270 270 270 271 271 272 272 273 274 274 275 276 276 277 278 279 280 281 281 282 282 282 282 281 280 280 280 281 282 283
264 264 264 264 263 263 263 262 262 261 260 259 259 260 260 260 260 259 258 258 258 257 257 258 258 258 258 258 258 258 257 257 257 257 256 256 257 257 258 258 259 260 261 262 262 263 263 264 265 266 266 267 267 268 268 269 270 270 271 271 272 272 273 274 274 275 276 277 277 278 279 280 280 281 281 281 280 279 279 278 279 279 280 281 282
263 263 263 263 263 262 262 262 261 261 261 260 258 257 257 257 258 258 258 258 257 257 257 257 257 257 257 257 257 257 258 258 258 258 258 257 257 257 258 258 259 260 261 262 262 262 262 263 263 264 265 266 266 267 268 269 270 270 271 271 272 273 273 274 275 275 276 277 277 278 279 280 280 280 280 279 278 277 276 276 277 278 279 280 281
260 261 262 262 262 262 261 261 261 260 260 259 258 257 256 255 255 256 257 257 257 257 257 257 257 257 256 256 256 256 257 258 259 259 259 259 258 258 258 258 259 260 261 261 262 262 262 262 263 263 264 265 266 267 267 268 269 270 271 272 272 272 273 273 274 275 275 276 277 278 278 279 279 279 278 277 276 275 275 275 276 277 279 279 280
259 259 260 260 261 261 261 260 260 259 258 258 257 257 256 256 255 255 255 255 256 257 257 257 257 257 256 256 256 256 256 256 257 257 258 259 259 259 259 259 259 259 259 260 260 261 261 261 262 263 264 265 265 266 267 268 269 270 271 272 272 273 273 273 274 275 275 276 277 277 277 277 277 277 276 276 276 275 275 276 277 278 279 279 279
258 258 258 259 259 259 259 259 258 258 258 257 257 256 256 256 256 255 254 254 254 255 255 256 256 257 256 256 256 256 255 255 255 256 256 257 258 258 259 259 259 258 258 258 259 260 260 261 262 262 263 264 265 266 267 268 269 270 271 272 273 274 274 274 274 275 276 276 276 276 276 276 276 276 276 276 276 277 277 278 279 279 279 279 278
258 257 257 257 257 258 258 258 258 257 257 257 257 256 256 256 256 256 255 255 254 254 254 254 255 255 255 255 255 255 255 255 255 255 256 256 257 257 258 258 258 258 258 257 258 258 259 260 261 261 262 263 264 265 266 268 269 270 271 272 273 273 274 274 274 275 275 275 275 275 276 276 277 277 277 278 278 278 279 280 280 280 279 278 277
257 256 256 256 256 256 256 257 257 257 256 256 257 256 256 256 256 256 256 256 255 254 254 254 254 254 254 254 254 254 254 254 254 254 255 256 257 257 258 258 258 258 258 258 257 257 258 258 259 260 261 262 263 264 265 266 267 269 270 271 272 273 274 274 275 275 275 275 275 276 277 277 278 279 279 279 280 280 281 281 280 279 279 278 279
257 256 255 255 255 255 255 256 256 256 256 256 256 256 256 256 256 256 256 256 256 255 255 254 254 254 254 254 254 253 253 253 253 254 254 255 256 257 258 258 259 259 259 259 259 258 258 258 258 259 260 261 262 263 264 265 266 268 269 270 271 272 274 274 275 275 276 276 277 277 278 279 280 281 282 282 282 282 281 280 279 279 279 279 279
258 257 256 255 254 254 254 255 255 255 256 256 255 256 256 256 256 256 256 256 256 256 256 255 255 255 255 255 254 254 253 252 252 253 253 254 255 255 256 257 258 259 260 260 260 260 259 259 259 260 260 261 262 263 264 265 266 267 269 270 271 273 274 275 275 276 276 277 278 279 281 282 282 283 283 283 283 282 281 280 280 279 279 279 279
260 259 258 256 255 254 254 254 254 254 255 255 256 256 256 256 256 256 256 256 256 256 256 256 256 256 256 256 255 255 254 253 253 253 253 254 254 255 256 257 257 258 259 260 260 260 260 260 261 261 261 262 263 264 265 266 267 268 269 270 271 273 274 275 276 277 278 279 281 282 283 283 284 284 284 284 284 283 282 281 281 280 280 280 280
262 261 259 258 257 255 254 253 253 253 253 253 254 255 255 256 256 257 257 257 257 257 257 257 257 257 257 257 257 256 256 255 254 254 254 255 255 256 256 257 258 259 259 260 261 261 261 262 262 263 263 263 264 265 266 267 268 268 269 270 271 273 274 275 276 278 279 280 282 283 284 284 284 284 285 285 284 284 283 283 283 283 283 283 283
262 261 261 260 259 257 255 254 253 253 252 252 252 253 254 254 255 256 257 257 257 257 257 257 257 257 257 257 257 257 257 256 256 256 256 256 256 256 257 258 259 259 260 261 261 262 263 263 264 264 265 265 266 267 268 269 269 270 271 272 274 275 276 276 278 279 280 281 282 282 283 284 284 285 285 285 285 285 285 285 285 285 285 286 287
263 262 262 261 260 259 258 256 254 253 252 251 251 251 251 252 253 254 255 256 256 256 256 256 256 256 256 257 257 257 256 256 256 256 256 256 256 257 257 258 258 259 260 261 261 262 263 264 265 266 267 267 268 269 269 270 271 272 273 275 276 276 277 278 279 280 281 281 282 283 283 284 284 285 285 284 284 285 285 286 286 286 287 287 288
266 265 264 263 262 261 260 259 257 255 253 252 251 250 250 250 251 252 253 254 255 256 256 256 256 256 256 256 256 256 256 256 255 255 255 256 256 257 257 257 258 258 259 260 261 262 263 264 265 266 267 267 268 269 269 270 271 272 273 274 275 275 276 277 278 279 280 281 282 282 283 284 284 284 283 283 284 284 285 286 287 287 287 288 288
265 265 265 265 264 263 262 260 259 257 255 253 251 250 249 249 250 251 251 252 253 254 255 256 256 256 255 255 255 255 256 256 255 255 255 255 256 256 257 257 258 258 258 259 260 261 262 263 264 265 265 266 267 267 268 269 270 271 272 272 273 274 275 276 277 278 279 280 281 282 283 283 283 282 282 282 283 284 285 286 286 287 288 289 289
265 265 264 264 264 263 263 261 260 258 257 255 253 251 250 249 249 250 250 251 251 252 253 254 255 255 255 255 255 255 255 255 255 255 255 255 255 256 257 258 258 259 259 259 260 260 261 262 263 263 264 264 265 266 266 267 268 269 270 271 272 273 274 275 276 277 278 279 280 281 282 282 281 281 281 282 282 283 284 285 286 287 289 289 289
267 265 264 262 262 262 262 262 261 259 257 256 254 252 251 249 249 249 249 250 250 251 251 253 254 255 255 255 255 255 255 255 255 255 255 255 255 256 257 258 259 259 260 260 260 260 260 260 261 262 263 264 264 264 265 266 267 268 269 270 271 273 274 275 276 277 278 279 279 280 280 280 280 280 280 281 282 283 284 285 287 288 288 288 288
268 266 264 262 261 260 260 261 261 260 259 257 255 253 251 250 249 248 248 249 249 249 250 251 252 253 254 254 254 254 254 255 255 255 255 255 255 256 257 257 258 259 260 260 260 260 260 260 260 261 262 262 263 263 264 265 266 267 268 270 271 272 273 273 275 276 278 279 279 279 279 279 279 279 280 281 282 283 284 285 286 287 287 287 288
268 267 266 264 262 260 259 259 259 260 260 259 258 255 252 250 248 248 247 248 248 248 249 249 250 251 252 252 253 253 254 254 254 254 254 255 255 256 256 257 257 257 258 259 259 260 260 259 259 259 260 260 261 263 264 265 266 267 268 269 270 271 272 273 275 276 277 278 278 278 278 279 279 279 280 281 282 283 284 285 286 286 287 287 288
267 266 266 264 262 260 259 258 257 258 258 259 259 258 256 253 249 247 247 247 247 247 248 248 248 249 250 250 252 252 252 252 252 253 253 254 255 255 256 256 256 257 257 258 258 259 259 259 259 259 260 261 262 263 265 266 267 267 267 268 268 269 271 272 274 275 276 276 277 277 278 278 279 279 280 281 282 283 284 285 286 287 287 288 288
266 266 265 264 263 261 259 257 256 255 256 256 257 258 258 256 253 250 248 247 246 246 247 247 248 248 248 249 250 251 251 252 252 252 252 253 254 254 255 255 255 255 256 257 257 258 259 259 260 261 262 262 263 264 264 265 266 266 267 267 268 269 270 272 273 274 274 275 276 276 277 277 278 279 280 281 282 283 284 285 286 286 287 288 288
267 267 266 265 264 263 261 259 257 254 253 254 255 256 256 257 256 253 251 249 248 246 246 246 247 248 248 249 249 250 251 251 252 252 252 252 253 253 253 253 253 254 254 255 256 258 259 260 260 261 261 262 262 263 263 264 264 265 266 267 268 269 270 271 272 272 273 274 275 275 276 277 278 279 280 281 282 283 284 285 286 286 287 288 289
269 268 266 264 263 262 261 260 258 256 254 253 253 254 255 256 256 255 253 251 250 249 248 247 246 247 248 249 249 249 250 250 251 252 252 252 252 252 253 252 253 253 253 254 255 256 257 258 259 260 261 261 262 262 262 263 264 265 266 267 268 269 270 270 271 271 272 273 273 274 275 276 277 279 280 281 282 283 284 285 286 287 288 288 289
271 270 268 266 264 262 261 260 259 258 257 255 253 253 253 254 255 254 253 252 251 251 250 248 248 248 248 248 249 249 249 249 250 251 252 252 252 252 252 252 252 252 252 253 254 255 256 257 258 259 260 260 261 261 262 262 263 264 265 266 268 268 269 269 269 270 270 271 273 274 275 276 277 278 279 280 281 282 284 285 286 287 288 288 289
272 271 270 269 267 265 263 262 260 259 258 257 255 254 253 252 253 253 253 252 251 251 251 250 249 249 249 249 249 249 249 249 249 250 251 251 252 252 252 252 252 252 252 253 254 255 256 257 257 257 258 259 259 260 260 261 262 263 264 266 267 268 268 268 269 269 270 271 273 274 275 276 277 278 279 280 281 282 283 285 286 287 287 288 288
271 271 271 270 270 268 266 263 261 259 258 257 257 255 253 252 251 252 252 252 251 250 250 250 250 249 249 250 250 250 250 250 249 249 250 251 251 252 252 253 253 253 253 254 254 255 256 257 257 257 257 257 257 257 258 259 261 262 263 264 265 266 267 268 269 270 271 272 273 274 275 276 276 277 278 279 281 282 283 284 285 286 286 287 288
271 270 270 270 269 268 267 265 263 261 259 257 257 256 255 253 251 250 250 251 251 251 250 250 249 249 249 249 250 250 250 251 250 250 250 250 251 252 252 253 254 254 253 253 253 254 254 255 256 256 257 257 257 257 258 259 260 261 262 263 264 266 267 269 270 271 272 273 274 275 275 276 277 278 279 280 281 282 283 284 285 286 286 287 288
270 269 269 269 269 268 267 266 264 262 260 258 257 256 256 254 252 251 250 250 251 251 251 250 249 249 249 249 249 249 249 250 251 251 250 250 251 252 253 254 254 253 252 252 253 253 254 254 254 255 256 256 257 257 258 259 259 260 261 262 264 265 267 268 270 271 272 273 274 275 276 277 278 278 279 280 281 282 283 284 285 285 286 287 287
269 269 269 269 269 268 267 266 265 264 262 260 258 257 256 255 254 252 251 250 250 251 251 250 250 249 249 249 248 248 248 248 249 250 250 250 251 252 254 254 254 253 252 252 252 252 253 253 253 254 255 256 256 257 258 258 259 260 261 262 263 265 266 268 269 270 271 273 274 275 276 277 277 278 279 280 281 282 283 283 284 285 286 286 286
270 270 269 269 269 268 268 267 266 265 263 262 260 258 257 256 256 254 252 251 250 250 251 251 250 249 248 248 248 248 248 248 248 249 250 251 251 252 253 253 253 252 252 251 251 251 252 252 253 254 254 255 256 257 258 259 260 261 262 263 264 265 266 267 269 270 271 272 274 275 275 276 277 278 279 280 280 281 282 283 284 285 285 286 286
271 270 269 269 269 269 268 268 267 266 264 263 262 261 259 258 257 256 254 253 251 250 250 251 251 250 249 248 248 248 249 249 249 248 249 250 250 251 251 251 251 251 251 250 250 250 251 252 253 254 255 256 256 257 258 259 260 261 262 263 264 265 266 267 269 270 271 272 273 274 275 275 276 277 278 279 280 281 282 283 284 285 285 285 286
271 270 270 270 269 269 269 269 268 267 266 265 263 262 261 260 259 257 256 254 253 252 251 251 251 252 251 250 249 249 249 249 249 248 248 249 250 250 250 250 251 251 251 250 250 250 251 253 254 254 255 257 258 259 259 260 261 262 263 264 265 266 266 267 269 269 270 271 272 273 273 274 275 276 277 279 280 281 282 283 284 285 285 285 286
271 270 270 270 270 270 270 269 269 269 268 267 266 264 263 261 260 259 257 256 255 254 253 252 252 252 253 253 252 251 250 249 249 249 248 248 249 250 250 251 251 251 250 250 250 250 251 252 254 255 256 258 259 259 260 261 262 262 263 264 265 266 267 268 269 269 270 270 271 272 273 274 275 276 277 278 279 281 282 283 284 284 285 285 285
272 271 270 269 269 269 269 269 269 269 269 269 268 267 265 263 262 260 259 257 256 254 253 252 252 252 253 253 254 253 252 251 250 249 249 248 249 249 250 251 251 250 250 249 249 250 251 252 253 255 257 258 259 260 261 261 262 263 263 264 266 267 267 268 269 269 269 270 271 272 273 274 275 276 277 278 279 281 281 282 283 283 284 284 284
274 272 270 269 269 269 269 269 269 268 268 268 268 267 267 265 264 262 260 259 257 255 253 253 253 253 253 253 253 254 253 252 251 249 249 249 249 249 249 249 250 250 250 250 250 250 251 253 254 256 257 258 259 260 261 261 262 262 263 264 265 266 267 268 268 269 270 271 271 272 273 274 275 276 277 278 279 280 280 281 282 282 283 284 284
275 273 271 270 269 268 268 269 269 268 268 267 267 267 266 265 264 263 261 260 258 256 254 253 252 252 252 253 253 253 253 252 251 249 249 248 249 249 249 249 250 250 250 250 251 251 253 254 255 256 257 258 259 260 260 261 262 262 263 263 264 265 266 267 268 269 270 271 272 273 274 274 275 276 277 278 278 279 280 281 282 283 283 284 284
276 274 272 271 270 269 268 268 268 268 268 267 266 266 266 265 264 263 262 260 259 257 255 253 252 251 251 252 252 252 251 251 251 250 250 249 250 250 250 250 250 250 251 251 252 253 253 254 255 256 257 258 259 260 261 261 262 262 263 264 265 265 266 267 268 269 270 271 272 273 274 275 275 276 277 278 279 280 281 282 283 283 283 283 283
277 276 274 273 271 270 269 269 268 268 267 267 266 266 265 265 264 264 263 261 259 258 256 255 253 252 251 251 251 251 251 251 250 250 250 250 250 251 251 251 251 250 251 251 252 253 253 254 255 256 257 258 259 260 261 261 262 263 263 264 265 265 266 267 268 269 270 271 272 273 274 275 276 277 278 279 280 281 282 282 282 282 283 283 283
280 278 277 275 274 272 271 270 269 268 268 267 266 266 265 265 264 264 263 262 261 259 257 255 254 253 252 251 251 251 251 251 251 250 250 250 250 250 251 251 251 251 251 251 252 253 254 254 255 256 257 258 259 260 260 261 262 263 263 264 265 265 266 267 268 270 271 272 273 274 275 276 277 278 279 280 281 281 281 282 282 283 283 282 282
282 281 280 278 277 275 273 272 270 269 268 267 267 266 265 264 264 263 263 262 262 260 259 257 255 253 252 251 251 250 250 250 250 250 250 250 250 250 251 251 251 251 251 252 252 253 254 255 255 256 257 258 259 260 261 262 263 263 264 265 265 266 267 268 269 270 272 273 274 275 276 277 279 280 280 281 281 281 282 282 282 282 281 281 281
284 283 281 280 278 277 276 274 273 271 269 268 267 266 265 264 264 263 262 262 261 261 260 258 256 254 253 252 251 250 250 250 249 249 249 249 249 250 251 251 252 252 252 253 253 254 254 255 256 257 258 259 260 261 261 262 263 264 265 265 266 267 268 269 270 272 273 275 276 277 278 279 279 280 280 280 281 281 281 281 280 280 280 280 279
284 283 282 280 279 278 277 276 275 273 272 270 268 267 266 265 264 263 262 261 260 260 259 258 257 256 254 252 251 251 251 251 250 250 249 249 249 249 250 250 251 251 252 253 253 254 254 255 255 256 257 257 258 259 260 261 262 264 265 266 267 268 269 271 272 274 275 276 277 277 278 278 279 279 280 280 280 279 279 279 278 279 279 279 279
283 282 281 280 279 278 276 275 275 274 273 272 271 269 267 266 264 263 262 261 259 259 258 257 257 256 255 254 253 252 251 251 251 251 251 251 251 251 250 250 251 251 251 252 252 253 253 254 254 255 255 256 257 259 260 261 263 264 265 267 268 269 271 272 273 274 275 275 276 276 277 277 278 278 278 278 277 277 277 277 278 278 278 279 280
Height
10491 10492 10494 10496 10497 10496 10495 10496 10496 10497 10498 10498 10498 10498 10497 10496 10496 10497 10501 10505 10508 10510 10512 10513 10513 10514 10515 10516 10517 10518 10519 10520 10521 10521 10523 10524 10525 10525 10526 10526 10527 10527 10526 10526 10527 10526 10527 10527 10527 10527 10527 10526 10524 10523 10522 10522 10522 10521 10520 10519 10517 10515 10513 10511 10510 10510 10509 10508 10506 10504 10503 10503 10503 10502 10500 10500 10500 10499 10498 10496 10493 10490 10486 10481 10478
10475 10474 10473 10474 10476 10478 10477 10477 10477 10478 10480 10481 10481 10481 10479 10478 10477 10479 10483 10485 10488 10492 10495 10497 10498 10498 10500 10501 10503 10504 10505 10505 10505 10506 10507 10508 10509 10511 10512 10512 10513 10514 10514 10513 10512 10512 10513 10514 10513 10512 10512 10512 10511 10509 10509 10509 10509 10508 10507 10506 10505 10503 10501 10499 10497 10496 10496 10495 10493 10490 10489 10489 10488 10487 10485 10484 10484 10482 10481 10480 10478 10475 10471 10467 10463
10459 10459 10458 10456 10455 10456 10457 10458 10458 10458 10461 10462 10463 10463 10462 10461 10460 10462 10465 10466 10469 10473 10476 10478 10480 10482 10484 10486 10488 10489 10489 10489 10489 10489 10491 10492 10494 10496 10497 10498 10499 10500 10500 10499 10498 10498 10499 10500 10499 10498 10497 10498 10497 10496 10495 10495 10495 10494 10494 10493 10492 10490 10488 10487 10484 10482 10482 10482 10479 10477 10476 10475 10474 10473 10471 10469 10467 10465 10464 10462 10460 10458 10455 10451 10447
10439 10441 10442 10442 10440 10437 10436 10437 10438 10440 10441 10443 10444 10444 10444 10444 10444 10446 10448 10449 10451 10453 10455 10458 10461 10464 10467 10469 10471 10471 10471 10471 10472 10473 10475 10477 10480 10481 10483 10484 10484 10485 10485 10484 10484 10484 10485 10486 10485 10483 10482 10483 10484 10482 10480 10480 10480 10480 10479 10478 10477 10476 10475 10474 10472 10469 10468 10467 10466 10463 10462 10461 10461 10460 10458 10456 10454 10451 10448 10444 10441 10440 10437 10434 10431
10420 10421 10422 10424 10426 10424 10421 10418 10418 10419 10421 10423 10425 10425 10425 10426 10428 10430 10431 10432 10433 10434 10436 10439 10442 10446 10448 10450 10451 10453 10453 10454 10456 10459 10461 10462 10464 10466 10468 10469 10470 10470 10470 10469 10469 10468 10469 10470 10470 10469 10468 10469 10469 10467 10465 10465 10466 10466 10464 10463 10462 10462 10462 10460 10458 10456 10454 10453 10452 10450 10449 10448 10448 10447 10446 10444 10442 10439 10436 10431 10427 10425 10421 10417 10414
10398 10400 10402 10404 10407 10408 10407 10404 10401 10400 10401 10403 10405 10406 10407 10408 10410 10412 10414 10415 10416 10417 10418 10421 10424 10427 10429 10429 10432 10434 10436 10437 10440 10443 10445 10447 10448 10450 10452 10453 10453 10454 10455 10455 10454 10453 10453 10454 10454 10454 10454 10454 10453 10451 10450 10450 10450 10451 10450 10449 10448 10448 10448 10446 10445 10443 10441 10439 10438 10438 10437 10436 10435 10435 10435 10433 10430 10428 10425 10421 10416 10413 10409 10404 10400
10377 10379 10382 10384 10386 10388 10389 10389 10388 10386 10384 10384 10385 10387 10389 10389 10391 10393 10395 10397 10399 10400 10401 10403 10405 10408 10410 10412 10414 10416 10417 10419 10423 10426 10428 10430 10432 10433 10434 10435 10435 10436 10439 10440 10440 10439 10439 10439 10439 10439 10439 10438 10437 10435 10434 10433 10434 10436 10436 10435 10434 10434 10433 10433 10432 10430 10428 10426 10425 10425 10425 10424 10422 10422 10422 10420 10418 10417 10414 10410 10406 10401 10397 10393 10388
10357 10358 10360 10363 10366 10368 10369 10369 10370 10370 10370 10369 10368 10368 10369 10371 10373 10375 10376 10379 10381 10382 10384 10386 10387 10390 10392 10395 10398 10399 10399 10402 10405 10407 10410 10411 10413 10415 10416 10417 10418 10420 10422 10425 10426 10426 10425 10426 10426 10425 10423 10422 10421 10419 10418 10418 10418 10420 10421 10420 10419 10419 10419 10419 10419 10417 10414 10413 10412 10412 10412 10411 10410 10409 10408 10407 10406 10404 10402 10398 10394 10389 10385 10380 10375
10337 10338 10340 10342 10345 10347 10349 10349 10349 10350 10352 10353 10352 10352 10352 10352 10353 10356 10358 10361 10362 10364 10366 10368 10370 10373 10376 10378 10380 10381 10382 10385 10387 10389 10391 10393 10394 10397 10399 10400 10401 10403 10406 10409 10410 10412 10412 10412 10412 10411 10407 10406 10406 10405 10403 10403 10402 10403 10404 10404 10404 10403 10404 10404 10404 10402 10401 10399 10398 10398 10398 10397 10397 10395 10394 10393 10392 10391 10389 10385 10382 10378 10373 10368 10363
10320 10318 10319 10321 10323 10326 10328 10329 10330 10331 10332 10333 10334 10335 10336 10336 10336 10337 10339 10341 10343 10345 10348 10350 10353 10356 10359 10361 10363 10364 10365 10368 10369 10370 10371 10374 10376 10379 10382 10384 10385 10386 10388 10391 10394 10396 10397 10397 10396 10395 10392 10391 10391 10390 10389 10388 10387 10387 10387 10388 10387 10387 10388 10389 10388 10387 10387 10386 10384 10384 10384 10383 10383 10382 10381 10379 10378 10377 10375 10372 10368 10365 10361 10356 10351
10303 10302 10301 10301 10302 10305 10308 10310 10311 10312 10313 10314 10315 10317 10318 10319 10320 10320 10321 10322 10324 10326 10329 10333 10336 10338 10340 10344 10347 10350 10352 10352 10351 10351 10353 10355 10358 10360 10363 10366 10368 10369 10371 10374 10377 10379 10380 10380 10380 10379 10377 10376 10376 10375 10374 10373 10372 10371 10370 10370 10370 10370 10371 10372 10372 10372 10372 10371 10370 10370 10370 10369 10368 10367 10366 10365 10363 10361 10359 10356 10353 10351 10347 10342 10338
10284 10284 10284 10284 10284 10285 10287 10290 10291 10292 10293 10295 10297 10298 10300 10301 10303 10304 10305 10306 10307 10308 10311 10314 10317 10319 10322 10326 10330 10334 10337 10336 10335 10335 10336 10337 10339 10341 10344 10346 10350 10353 10356 10359 10361 10362 10363 10363 10364 10364 10362 10361 10360 10358 10358 10358 10358 10357 10355 10353 10352 10352 10353 10354 10355 10356 10356 10356 10355 10354 10354 10354 10353 10352 10351 10350 10348 10345 10343 10340 10338 10336 10332 10327 10323
10264 10267 10267 10267 10267 10267 10268 10270 10272 10272 10274 10276 10278 10280 10281 10283 10284 10285 10288 10289 10290 10292 10295 10296 10298 10300 10303 10308 10312 10316 10319 10320 10320 10320 10321 10322 10323 10323 10324 10327 10330 10335 10340 10343 10344 10346 10347 10348 10348 10348 10346 10345 10344 10343 10342 10343 10343 10342 10340 10337 10334 10331 10332 10336 10338 10339 10338 10338 10337 10337 10337 10338 10336 10336 10335 10334 10331 10329 10326 10324 10321 10320 10316 10312 10308
10246 10248 10250 10250 10249 10249 10249 10251 10253 10254 10255 10257 10259 10261 10263 10265 10266 10267 10269 10272 10274 10276 10278 10280 10282 10283 10285 10289 10293 10297 10301 10303 10304 10304 10305 10306 10307 10307 10307 10308 10311 10316 10321 10326 10329 10332 10333 10333 10332 10331 10329 10329 10330 10329 10328 10328 10327 10326 10325 10322 10317 10313 10313 10317 10320 10320 10320 10320 10320 10320 10321 10321 10320 10318 10318 10316 10314 10312 10309 10307 10305 10303 10299 10294 10291
10228 10230 10232 10233 10232 10232 10232 10232 10234 10236 10238 10239 10241 10242 10244 10247 10249 10250 10253 10255 10256 10259 10261 10264 10266 10267 10269 10271 10275 10280 10284 10285 10285 10287 10289 10289 10290 10290 10290 10291 10294 10298 10302 10308 10313 10316 10317 10317 10315 10314 10313 10314 10315 10315 10314 10313 10312 10311 10310 10307 10302 10297 10298 10300 10301 10300 10301 10301 10302 10302 10303 10303 10302 10300 10299 10298 10296 10294 10292 10291 10290 10287 10282 10277 10274
10210 10212 10215 10216 10215 10215 10215 10216 10217 10218 10220 10222 10224 10224 10226 10229 10230 10232 10236 10237 10238 10241 10244 10247 10250 10252 10253 10255 10259 10264 10268 10267 10268 10271 10273 10274 10274 10274 10274 10276 10279 10282 10286 10290 10295 10297 10299 10299 10298 10298 10298 10299 10300 10299 10298 10298 10297 10296 10294 10290 10287 10285 10285 10284 10282 10281 10281 10282 10283 10284 10284 10284 10283 10281 10280 10279 10277 10276 10275 10274 10274 10271 10266 10262 10259
10191 10194 10197 10198 10199 10198 10198 10199 10201 10201 10201 10203 10206 10207 10208 10210 10212 10214 10218 10220 10221 10224 10227 10230 10233 10236 10237 10239 10243 10248 10251 10251 10252 10254 10256 10258 10259 10259 10260 10261 10264 10267 10271 10273 10276 10278 10280 10281 10281 10281 10282 10283 10284 10283 10283 10283 10282 10280 10277 10274 10272 10271 10270 10268 10265 10263 10263 10264 10265 10265 10265 10265 10265 10263 10261 10260 10258 10258 10257 10258 10258 10255 10251 10247 10244
10171 10175 10177 10178 10180 10181 10180 10181 10183 10185 10185 10185 10187 10189 10190 10191 10193 10195 10199 10203 10205 10207 10210 10213 10216 10218 10220 10223 10226 10231 10235 10236 10236 10238 10241 10243 10243 10243 10245 10247 10250 10254 10256 10258 10259 10261 10263 10264 10264 10265 10267 10268 10268 10267 10268 10268 10267 10264 10261 10259 10258 10258 10256 10252 10248 10247 10247 10248 10248 10248 10248 10248 10246 10245 10244 10242 10240 10240 10239 10240 10240 10237 10234 10231 10228
10151 10155 10156 10157 10160 10161 10161 10162 10164 10167 10169 10169 10169 10170 10171 10172 10174 10177 10180 10185 10188 10190 10193 10196 10199 10201 10203 10206 10209 10213 10218 10220 10220 10223 10226 10227 10228 10228 10229 10233 10237 10239 10242 10243 10244 10246 10247 10248 10248 10249 10251 10252 10252 10252 10253 10252 10250 10247 10244 10243 10244 10243 10239 10235 10233 10232 10232 10233 10233 10232 10233 10231 10228 10227 10226 10225 10223 10223 10222 10223 10222 10219 10217 10213 10210
10132 10134 10135 10136 10138 10139 10140 10142 10146 10148 10150 10153 10154 10154 10154 10155 10156 10158 10161 10166 10170 10174 10176 10179 10182 10184 10185 10189 10192 10196 10200 10203 10204 10207 10210 10211 10212 10213 10215 10219 10222 10224 10227 10228 10229 10231 10232 10233 10234 10234 10235 10236 10237 10237 10236 10234 10231 10230 10228 10229 10228 10225 10220 10219 10219 10217 10216 10216 10217 10217 10218 10216 10213 10211 10210 10208 10207 10205 10205 10206 10206 10204 10201 10197 10194
10114 10115 10117 10117 10117 10118 10119 10122 10126 10129 10131 10134 10136 10138 10138 10137 10138 10140 10142 10146 10151 10155 10158 10161 10165 10168 10169 10171 10175 10178 10181 10185 10188 10190 10193 10194 10194 10196 10201 10204 10206 10208 10210 10212 10213 10216 10217 10218 10219 10219 10219 10220 10221 10220 10218 10215 10214 10214 10214 10214 10211 10206 10203 10204 10203 10202 10201 10200 10200 10200 10201 10201 10199 10197 10196 10194 10191 10189 10188 10189 10190 10188 10186 10183 10179
10097 10098 10100 10100 10100 10099 10099 10101 10105 10109 10112 10114 10117 10120 10121 10119 10120 10122 10124 10126 10130 10135 10139 10143 10147 10151 10153 10155 10158 10161 10163 10167 10171 10173 10175 10176 10176 10179 10184 10187 10189 10191 10194 10196 10199 10201 10202 10202 10203 10204 10204 10205 10205 10204 10202 10200 10200 10201 10201 10198 10194 10190 10189 10189 10188 10187 10186 10184 10184 10185 10185 10185 10185 10183 10181 10179 10177 10175 10174 10174 10173 10172 10171 10168 10165
10082 10083 10083 10082 10081 10081 10080 10082 10084 10088 10092 10094 10097 10102 10105 10103 10103 10105 10107 10109 10113 10116 10120 10123 10127 10133 10137 10139 10142 10144 10146 10150 10153 10155 10157 10159 10160 10161 10165 10168 10170 10173 10177 10181 10184 10186 10187 10188 10188 10189 10190 10190 10190 10189 10187 10186 10187 10187 10185 10182 10179 10177 10176 10175 10173 10172 10171 10170 10171 10171 10170 10170 10169 10167 10165 10164 10162 10161 10160 10159 10158 10156 10155 10153 10150
10065 10068 10066 10065 10064 10061 10060 10063 10065 10067 10071 10074 10077 10083 10087 10087 10088 10089 10090 10093 10096 10100 10102 10104 10108 10113 10118 10121 10124 10127 10130 10133 10137 10138 10140 10142 10144 10145 10147 10150 10153 10156 10160 10165 10169 10171 10173 10173 10173 10173 10174 10176 10176 10173 10172 10173 10173 10171 10169 10167 10165 10164 10163 10159 10156 10157 10158 10158 10158 10157 10157 10156 10154 10152 10150 10149 10148 10147 10146 10144 10143 10141 10140 10138 10134
10046 10048 10047 10046 10045 10043 10042 10043 10045 10047 10050 10053 10058 10064 10069 10070 10072 10074 10075 10077 10081 10085 10086 10087 10090 10094 10098 10102 10106 10110 10113 10117 10121 10122 10123 10125 10127 10128 10131 10135 10137 10138 10142 10147 10151 10155 10157 10158 10158 10158 10158 10160 10159 10157 10156 10159 10159 10155 10152 10151 10151 10151 10149 10143 10140 10142 10143 10144 10144 10144 10144 10142 10139 10137 10135 10134 10133 10133 10132 10129 10128 10126 10125 10123 10119
10026 10027 10027 10028 10027 10025 10025 10025 10025 10025 10028 10031 10037 10045 10050 10053 10056 10059 10060 10061 10065 10068 10070 10071 10074 10076 10080 10084 10087 10091 10095 10100 10104 10106 10106 10109 10111 10111 10116 10121 10122 10122 10125 10129 10132 10136 10138 10141 10142 10141 10141 10142 10142 10140 10141 10143 10144 10141 10137 10136 10138 10137 10132 10126 10125 10127 10128 10128 10128 10129 10128 10126 10123 10121 10120 10118 10118 10119 10118 10115 10113 10111 10110 10109 10104
10007 10008 10009 10010 10010 10010 10009 10010 10009 10008 10008 10010 10015 10023 10030 10034 10038 10041 10044 10045 10047 10050 10053 10055 10058 10060 10064 10066 10068 10072 10078 10083 10087 10090 10090 10091 10093 10095 10100 10107 10108 10108 10109 10112 10114 10117 10120 10122 10124 10124 10124 10126 10126 10126 10126 10127 10128 10128 10125 10123 10123 10120 10115 10111 10112 10113 10113 10112 10112 10112 10111 10109 10107 10105 10103 10103 10103 10103 10102 10099 10097 10096 10095 10093 10089
9988 9991 9992 9991 9992 9993 9993 9995 9995 9994 9993 9993 9995 10001 10008 10014 10019 10024 10027 10027 10029 10032 10035 10037 10041 10044 10047 10049 10051 10055 10060 10066 10070 10071 10071 10072 10076 10079 10085 10092 10094 10094 10094 10095 10097 10099 10102 10105 10107 10108 10108 10111 10113 10113 10113 10111 10111 10112 10111 10109 10106 10102 10099 10099 10100 10099 10098 10096 10096 10096 10094 10092 10090 10089 10088 10087 10087 10087 10086 10084 10083 10081 10079 10077 10074
9972 9974 9974 9972 9972 9974 9976 9979 9981 9981 9980 9978 9978 9982 9987 9992 9998 10006 10010 10010 10011 10015 10017 10019 10024 10027 10029 10032 10035 10039 10044 10048 10050 10051 10052 10056 10060 10064 10069 10075 10079 10079 10079 10079 10079 10082 10086 10089 10092 10093 10093 10096 10099 10100 10098 10095 10093 10094 10094 10092 10089 10086 10085 10087 10087 10085 10083 10082 10081 10079 10078 10076 10075 10074 10073 10072 10072 10071 10071 10069 10068 10067 10064 10061 10058
9958 9959 9957 9956 9956 9958 9960 9963 9964 9965 9966 9965 9963 9965 9969 9972 9978 9986 9992 9992 9992 9996 10000 10003 10007 10008 10010 10015 10020 10023 10027 10030 10030 10032 10036 10040 10043 10046 10051 10057 10061 10063 10064 10064 10063 10066 10071 10074 10076 10077 10079 10081 10083 10083 10082 10078 10076 10077 10077 10074 10072 10071 10073 10074 10073 10070 10068 10066 10065 10063 10062 10061 10060 10060 10058 10057 10057 10056 10056 10055 10054 10052 10050 10048 10044
9941 9942 9939 9938 9940 9941 9942 9945 9946 9948 9951 9952 9951 9951 9954 9955 9959 9967 9973 9974 9974 9978 9984 9988 9990 9991 9994 9999 10003 10006 10010 10013 10013 10016 10020 10022 10025 10029 10034 10039 10043 10046 10048 10048 10048 10051 10056 10059 10060 10061 10063 10066 10068 10067 10066 10063 10061 10061 10061 10058 10057 10058 10059 10059 10057 10055 10052 10051 10049 10048 10047 10047 10047 10046 10044 10043 10042 10041 10041 10041 10040 10038 10036 10034 10031
9923 9923 9920 9920 9923 9925 9926 9929 9930 9932 9934 9936 9937 9940 9942 9942 9943 9947 9953 9956 9957 9960 9966 9971 9974 9975 9978 9982 9985 9988 9993 9996 9998 10000 10002 10005 10008 10012 10015 10021 10027 10030 10031 10033 10034 10036 10040 10045 10048 10048 10049 10051 10052 10052 10050 10047 10045 10045 10045 10043 10042 10044 10044 10043 10042 10040 10038 10036 10036 10035 10034 10034 10034 10032 10031 10030 10028 10027 10027 10027 10026 10024 10022 10019 10017
9906 9907 9904 9905 9909 9911 9913 9915 9916 9917 9919 9920 9922 9926 9929 9931 9931 9930 9932 9937 9941 9944 9947 9952 9957 9959 9961 9966 9969 9972 9975 9978 9981 9984 9987 9989 9992 9994 9996 10001 10008 10013 10017 10020 10021 10022 10025 10030 10034 10035 10035 10036 10036 10036 10035 10032 10030 10030 10029 10028 10028 10028 10027 10026 10025 10024 10023 10023 10023 10023 10022 10022 10021 10019 10018 10017 10015 10014 10013 10013 10012 10010 10007 10006 10004
9892 9893 9891 9892 9895 9897 9899 9900 9901 9903 9904 9906 9907 9910 9913 9916 9919 9918 9917 9919 9925 9930 9933 9935 9939 9943 9946 9950 9954 9957 9959 9962 9966 9970 9972 9973 9975 9977 9978 9981 9989 9999 10005 10007 10009 10010 10011 10014 10018 10019 10019 10019 10020 10020 10018 10017 10016 10016 10015 10014 10013 10011 10011 10010 10009 10008 10009 10009 10010 10010 10009 10009 10007 10006 10004 10003 10001 10000 10000 9998 9997 9995 9993 9991 9990
9880 9879 9878 9879 9881 9882 9884 9885 9887 9889 9891 9892 9893 9895 9897 9901 9904 9906 9905 9905 9909 9916 9920 9921 9923 9927 9931 9935 9939 9943 9945 9946 9950 9954 9957 9958 9959 9960 9961 9965 9975 9987 9992 9994 9995 9996 9997 9999 10000 10000 9999 10000 10002 10003 10003 10002 10002 10002 10001 10000 9998 9998 9998 9997 9995 9994 9995 9994 9994 9994 9994 9993 9992 9991 9989 9987 9986 9986 9985 9983 9982 9980 9978 9977 9976
9867 9866 9866 9866 9868 9869 9870 9872 9874 9875 9877 9879 9881 9882 9884 9886 9889 9893 9894 9894 9896 9900 9905 9908 9910 9912 9916 9921 9925 9928 9930 9933 9935 9938 9942 9944 9944 9943 9946 9953 9963 9972 9977 9979 9979 9981 9983 9985 9985 9983 9982 9982 9984 9987 9987 9987 9987 9987 9987 9987 9986 9986 9985 9983 9981 9981 9981 9979 9978 9979 9978 9978 9977 9976 9974 9972 9971 9971 9970 9969 9967 9966 9964 9963 9962
9855 9855 9855 9855 9856 9856 9857 9859 9861 9863 9864 9866 9868 9870 9872 9873 9876 9880 9883 9884 9885 9886 9889 9893 9896 9899 9903 9907 9909 9911 9915 9919 9921 9923 9926 9930 9930 9931 9936 9944 9949 9955 9961 9965 9966 9967 9969 9969 9968 9966 9966 9966 9967 9969 9970 9971 9971 9973 9974 9974 9974 9973 9972 9970 9969 9968 9967 9965 9965 9965 9964 9963 9963 9961 9959 9958 9956 9956 9956 9954 9953 9953 9951 9950 9949
9844 9845 9845 9844 9844 9844 9844 9846 9849 9851 9852 9854 9856 9858 9860 9862 9864 9868 9871 9873 9874 9875 9875 9877 9881 9886 9890 9892 9893 9895 9900 9904 9909 9912 9915 9918 9920 9923 9927 9930 9933 9938 9945 9951 9953 9953 9953 9952 9950 9948 9948 9948 9950 9952 9955 9956 9957 9959 9960 9961 9961 9960 9959 9957 9956 9954 9953 9952 9952 9951 9950 9949 9949 9947 9945 9943 9943 9942 9942 9941 9940 9939 9937 9936 9934
9834 9833 9833 9833 9833 9832 9832 9834 9837 9839 9841 9842 9843 9846 9848 9850 9853 9856 9858 9860 9862 9864 9864 9865 9867 9871 9875 9877 9880 9883 9887 9892 9898 9903 9904 9905 9907 9910 9912 9914 9917 9923 9931 9937 9940 9938 9936 9934 9933 9931 9929 9930 9933 9938 9941 9943 9943 9944 9945 9945 9946 9946 9945 9943 9942 9940 9940 9939 9938 9937 9936 9936 9935 9933 9931 9931 9930 9929 9928 9927 9926 9925 9924 9922 9921
9823 9822 9822 9823 9822 9822 9821 9823 9825 9827 9829 9831 9832 9834 9837 9839 9841 9844 9846 9848 9850 9852 9854 9855 9856 9857 9860 9863 9868 9872 9877 9881 9886 9891 9892 9891 9892 9894 9896 9899 9904 9911 9919 9923 9924 9922 9920 9917 9915 9912 9911 9914 9920 9925 9927 9928 9929 9929 9930 9930 9931 9931 9930 9929 9928 9928 9927 9926 9925 9924 9923 9922 9921 9920 9919 9918 9918 9916 9914 9913 9912 9911 9910 9909 9907
9812 9812 9813 9813 9812 9812 9812 9812 9814 9815 9817 9819 9821 9824 9826 9828 9830 9832 9834 9837 9839 9841 9842 9844 9845 9845 9847 9851 9854 9859 9865 9870 9874 9877 9879 9879 9878 9879 9882 9886 9891 9898 9903 9906 9906 9905 9903 9900 9896 9894 9896 9902 9908 9911 9913 9914 9915 9916 9915 9915 9915 9916 9915 9915 9915 9914 9912 9911 9910 9910 9910 9909 9908 9907 9906 9906 9905 9904 9902 9900 9898 9897 9896 9895 9893
9803 9803 9804 9803 9803 9802 9802 9803 9804 9805 9806 9808 9809 9812 9814 9816 9818 9820 9822 9825 9827 9829 9830 9832 9833 9834 9837 9839 9841 9846 9852 9857 9861 9864 9866 9865 9865 9866 9869 9873 9876 9880 9884 9886 9888 9887 9884 9881 9880 9882 9887 9892 9895 9896 9898 9899 9900 9901 9901 9901 9901 9901 9900 9900 9899 9898 9897 9896 9896 9896 9896 9895 9894 9893 9893 9892 9892 9890 9889 9887 9885 9884 9883 9881 9878
9793 9794 9794 9794 9794 9792 9792 9793 9794 9795 9796 9798 9799 9800 9802 9804 9806 9808 9810 9812 9815 9818 9819 9820 9821 9823 9825 9828 9830 9834 9839 9843 9847 9850 9850 9850 9851 9852 9855 9858 9861 9864 9867 9869 9870 9868 9867 9867 9871 9874 9878 9880 9882 9882 9883 9884 9885 9886 9887 9888 9887 9886 9886 9885 9885 9883 9883 9882 9882 9882 9882 9881 9880 9880 9879 9879 9878 9877 9876 9874 9873 9871 9870 9867 9864
9784 9784 9784 9784 9784 9783 9783 9784 9784 9785 9787 9788 9788 9790 9791 9792 9794 9796 9798 9800 9803 9805 9808 9810 9811 9812 9814 9816 9820 9823 9826 9828 9831 9834 9835 9836 9837 9838 9841 9843 9846 9849 9851 9853 9853 9854 9855 9858 9861 9864 9866 9867 9868 9869 9869 9870 9871 9872 9873 9872 9872 9872 9872 9872 9871 9870 9869 9869 9869 9869 9868 9867 9867 9867 9866 9865 9865 9864 9862 9861 9860 9858 9855 9852 9849
9775 9775 9775 9775 9775 9775 9775 9775 9775 9776 9777 9777 9779 9780 9780 9781 9783 9785 9786 9789 9791 9793 9796 9798 9800 9802 9804 9806 9808 9811 9813 9815 9818 9820 9822 9824 9825 9826 9828 9831 9833 9836 9838 9840 9841 9843 9845 9848 9850 9851 9853 9854 9854 9855 9856 9856 9857 9857 9858 9858 9859 9859 9859 9859 9858 9857 9857 9857 9856 9855 9855 9855 9854 9854 9853 9852 9852 9851 9850 9848 9846 9843 9841 9838 9834
9766 9766 9766 9766 9766 9766 9766 9766 9766 9767 9767 9768 9769 9770 9770 9771 9773 9774 9776 9778 9780 9782 9785 9787 9790 9792 9794 9796 9798 9800 9801 9804 9807 9810 9812 9813 9814 9816 9817 9819 9821 9824 9826 9828 9830 9832 9834 9836 9838 9838 9839 9840 9840 9841 9842 9843 9843 9844 9845 9846 9847 9847 9846 9846 9845 9844 9844 9844 9843 9842 9842 9841 9840 9840 9840 9840 9839 9838 9836 9834 9831 9828 9825 9823 9820
9757 9757 9757 9757 9757 9757 9757 9758 9758 9758 9759 9759 9760 9761 9761 9762 9763 9764 9766 9768 9769 9771 9774 9777 9779 9781 9784 9785 9787 9789 9790 9793 9796 9799 9801 9803 9804 9805 9806 9808 9809 9812 9814 9816 9818 9820 9821 9823 9824 9825 9826 9827 9828 9829 9830 9830 9831 9832 9833 9834 9834 9834 9833 9832 9832 9832 9831 9831 9830 9829 9828 9827 9826 9827 9827 9827 9826 9824 9822 9819 9816 9812 9810 9809 9807
9749 9748 9748 9748 9748 9748 9748 9749 9749 9750 9750 9751 9751 9752 9753 9753 9754 9755 9757 9758 9759 9762 9764 9766 9768 9771 9772 9774 9776 9777 9779 9781 9784 9787 9789 9792 9793 9794 9795 9797 9798 9800 9802 9803 9805 9807 9809 9810 9812 9813 9814 9815 9816 9816 9817 9818 9819 9820 9820 9820 9820 9820 9819 9819 9819 9819 9818 9818 9817 9816 9814 9813 9812 9813 9813 9813 9812 9810 9807 9804 9801 9798 9796 9796 9795
9741 9740 9740 9740 9739 9739 9739 9739 9740 9741 9741 9742 9743 9743 9744 9745 9746 9747 9748 9749 9750 9752 9754 9756 9758 9760 9762 9763 9765 9766 9768 9770 9773 9775 9778 9780 9781 9783 9785 9786 9787 9788 9790 9792 9794 9795 9797 9799 9800 9801 9802 9803 9804 9804 9805 9805 9806 9806 9806 9806 9806 9806 9806 9807 9807 9806 9806 9805 9803 9801 9800 9800 9799 9799 9799 9798 9796 9795 9792 9790 9788 9786 9785 9784 9784
9734 9733 9733 9733 9732 9732 9731 9731 9731 9732 9732 9733 9734 9735 9736 9737 9737 9738 9739 9740 9741 9743 9744 9746 9748 9750 9752 9754 9755 9757 9758 9760 9762 9764 9767 9768 9770 9772 9774 9775 9777 9778 9780 9781 9783 9784 9786 9787 9789 9790 9791 9792 9792 9793 9793 9793 9793 9793 9793 9793 9794 9794 9794 9794 9795 9794 9793 9792 9791 9789 9788 9787 9786 9785 9784 9783 9782 9781 9779 9778 9776 9775 9774 9773 9772
9728 9727 9727 9726 9726 9725 9725 9724 9724 9724 9724 9725 9725 9726 9727 9728 9729 9730 9731 9732 9733 9734 9735 9736 9738 9739 9741 9743 9745 9747 9749 9751 9753 9754 9756 9758 9760 9762 9764 9766 9767 9769 9770 9772 9773 9775 9776 9777 9778 9779 9780 9781 9781 9782 9782 9781 9781 9782 9782 9782 9782 9782 9782 9782 9782 9782 9781 9780 9778 9777 9776 9775 9773 9772 9770 9769 9768 9768 9767 9766 9765 9763 9762 9761 9760